Weather History for Trinidad, CO

Change the Weather History Date:

Monday, January 21, 2013

  Actual Average Record
Temperature  
Mean Temperature 37 °F 32 °F  
Max Temperature 56 °F 47 °F 73 °F (1950)
Min Temperature 17 °F 18 °F -13 °F (1959)
Degree Days  
Heating Degree Days 28 32  
Month to date heating degree days 768 692  
Since 1 July heating degree days 2817 2960  
Cooling Degree Days 0 0  
Month to date cooling degree days 0 0  
Year to date cooling degree days 0 0  
Moisture  
Dew Point 5 °F    
Average Humidity 33    
Maximum Humidity 54    
Minimum Humidity 12    
Precipitation  
Precipitation 0.00 in 0.02 in 0.21 in (1975)
Month to date precipitation 0.03 0.27  
Year to date precipitation 0.03 0.27  
Sea Level Pressure  
Sea Level Pressure 30.16 in    
Wind  
Wind Speed 8 mph (WSW)    
Max Wind Speed 16 mph    
Max Gust Speed 20 mph    
Visibility 10 miles    
Events      
T = Trace of Precipitation, MM = Missing Value Source: NWS Daily Summary

Daily Weather History Graph

Daily Weather History Graph

Search for Another Location

Airport:

Trip Planner

Search our weather history database for the weather conditions in past years. The results will help you decide how hot, cold, wet, or windy it might be!

Date:

Astronomy

Jan. 21, 2013 Rise Set
Actual Time 7:07 AM MST 5:10 PM MST
Civil Twilight 6:39 AM MST 5:38 PM MST
Nautical Twilight 6:07 AM MST 6:10 PM MST
Astronomical Twilight 5:36 AM MST 6:41 PM MST
Moon 12:52 PM MST (1/21) 2:37 AM MST (1/21)
Length of Visible Light 10h 58m
Length of Day
10h 02m
Waxing Gibbous, 75% of the Moon is Illuminated
Jan 21
Waxing Gibbous
Jan 26
Full
Feb 3
Last Quarter
Feb 10
New
Feb 17
First Quarter

Hourly Weather History & Observations

Time (MST) Temp. Windchill Dew Point Humidity Pressure Visibility Wind Dir Wind Speed Gust Speed Precip Events Conditions
12:54 AM 26.1 °F 15.6 °F 6.1 °F 43% 30.17 in 10.0 mi WSW 11.5 mph - N/A   Clear
1:54 AM 28.9 °F 18.6 °F 7.0 °F 40% 30.16 in 10.0 mi WSW 12.7 mph - N/A   Clear
2:54 AM 18.0 °F 6.9 °F 3.9 °F 54% 30.19 in 10.0 mi South 9.2 mph - N/A   Clear
3:54 AM 18.0 °F 9.8 °F 3.9 °F 54% 30.21 in 10.0 mi WSW 5.8 mph - N/A   Clear
4:54 AM 23.0 °F 11.1 °F 7.0 °F 50% 30.21 in 10.0 mi WSW 12.7 mph - N/A   Clear
5:54 AM 23.0 °F 12.4 °F 7.0 °F 50% 30.23 in 10.0 mi West 10.4 mph - N/A   Clear
6:54 AM 21.0 °F 12.4 °F 6.1 °F 53% 30.27 in 10.0 mi West 6.9 mph - N/A   Clear
7:54 AM 25.0 °F 14.2 °F 6.1 °F 45% 30.31 in 10.0 mi West 11.5 mph - N/A   Clear
8:54 AM 33.1 °F 23.0 °F 7.0 °F 34% 30.28 in 10.0 mi WSW 15.0 mph - N/A   Clear
9:54 AM 42.1 °F 37.1 °F 7.0 °F 24% 30.23 in 10.0 mi WSW 8.1 mph - N/A   Clear
10:54 AM 48.9 °F - 5.0 °F 17% 30.19 in 10.0 mi Variable 3.5 mph - N/A   Clear
11:54 AM 51.1 °F - 5.0 °F 15% 30.14 in 10.0 mi Calm Calm - N/A   Clear
12:54 PM 53.1 °F - 5.0 °F 14% 30.08 in 10.0 mi ESE 5.8 mph - N/A   Clear
1:54 PM 55.0 °F - 3.0 °F 12% 30.05 in 10.0 mi ESE 6.9 mph - N/A   Clear
2:54 PM 55.9 °F - 3.9 °F 12% 30.09 in 10.0 mi East 8.1 mph - N/A   Clear
4:54 PM 51.1 °F - 3.0 °F 14% 30.07 in 10.0 mi Calm Calm - N/A   Clear
5:54 PM 48.0 °F - 3.9 °F 16% 30.09 in 10.0 mi Calm Calm - N/A   Clear
6:54 PM 34.0 °F 28.0 °F 3.0 °F 27% 30.17 in 10.0 mi WSW 6.9 mph - N/A   Clear
7:54 PM 30.9 °F 22.2 °F 3.9 °F 32% 30.17 in 10.0 mi West 10.4 mph - N/A   Clear
8:54 PM 34.0 °F 25.0 °F 7.0 °F 32% 30.12 in 10.0 mi West 12.7 mph - N/A   Clear
9:54 PM 28.9 °F 18.6 °F 6.1 °F 38% 30.12 in 10.0 mi West 12.7 mph - N/A   Clear
10:54 PM 27.0 °F 16.7 °F 6.1 °F 41% 30.11 in 10.0 mi WNW 11.5 mph - N/A   Clear
11:54 PM 27.0 °F 17.3 °F 7.0 °F 43% 30.11 in 10.0 mi WNW 10.4 mph - N/A   Clear